Orbital Elements at Epoch 2457600.5 (2016-Jul-31.0) TDB
Reference: JPL 9 (heliocentric ecliptic J2000)
Element | Value | Uncertainty (1-sigma) | Units |
e | .6538003399440255 | 0.0011175 | |
a | 2.702747118773513 | 0.0084756 | au |
q | .9356901337366548 | 8.5954e-05 | au |
i | 10.47556528700547 | 0.01204 | deg |
node | 133.2127202299409 | 0.0017821 | deg |
peri | 213.9854885244756 | 0.00050906 | deg |
M | 352.8669759033157 | 0.03587 | deg |
tp | 2457632.657163725642 (2016-Sep-01.15716373) | 0.010446 | TDB |
period | 1622.955254926487 4.44 | 7.6342 0.0209 | d yr |
n | .2218175756276821 | 0.0010434 | deg/d |
Q | 4.469804103810372 | 0.014017 | au |
|
| | Orbit Determination Parameters
Additional Information
|